[[{"header":{"parameterUnit":"m.s-1","parameterCategory":1,"la1":30.2991,"la2":30.254,"lo1":-89.0895,"lo2":-89.0444,"dy":0.0017,"dx":0.0017,"nx":28,"ny":28,"refTime":"2025-04-26T09:00:00:Z","depth":0,"parameterNumber":2,"parameterNumberName":"U-component_of_WINDS"},"data":[0,0,0,0,0,0,0,0,0,0,0,0,0,0,0,0,0,0,0,0,0,0,0,0,0,0,0,0,0,0,0,0,0,0,0,0,0,0,0,0,0,0,0,0,0,0,0,0,0,0,0,0,0,0,0,0,0,0,1.9636,1.9636,0,1.9704,1.9705,1.9705,1.9683,1.9681,1.968,1.9679,1.9748,1.9751,1.9754,0,0,0,0,0,0,0,0,0,0,0,0,0,1.9485,1.9488,1.9636,1.9636,1.9637,1.9704,1.9705,1.9706,1.9683,1.9681,1.968,1.9678,1.9747,1.975,1.9754,0,0,0,0,0,0,0,0,0,0,0,0,0,1.9551,1.9488,1.9635,1.9634,1.9635,1.9703,1.9705,1.9706,1.9684,1.9681,1.9679,1.9677,1.9745,1.975,1.9755,1.9829,0,0,1.9769,1.9772,0,0,0,0,0,0,0,0,1.9547,1.9557,1.9634,1.9634,1.9635,1.9683,1.9677,1.9747,1.9684,1.9665,1.9678,1.9676,1.9728,1.9734,1.9751,1.9832,1.9835,1.977,1.9773,1.9775,1.9776,0,0,0,0,0,0,0,1.9543,1.9554,1.9663,1.9635,1.9636,1.963,1.9637,1.969,1.9708,1.9666,1.9665,1.9673,1.9728,1.9747,1.9753,1.9836,1.977,1.9774,1.9777,1.9779,1.9978,1.998,0,0,0,0,0,0,1.9538,1.955,1.966,1.9665,1.9585,1.9634,1.9642,1.967,1.9707,1.9711,1.9675,1.9672,1.974,1.9747,1.9755,1.9842,1.9775,1.9779,1.9782,1.9976,1.9978,1.9981,0,0,0,0,0,0,1.9535,1.9548,1.9658,1.9607,1.962,1.9639,1.967,1.9672,1.9691,1.9714,1.9717,1.9691,1.9738,1.9748,1.981,1.9844,1.9781,1.9786,1.9973,1.9976,1.998,2.0018,0,0,0,0,0,0,1.9531,1.9547,1.9576,1.9608,1.9623,1.9712,1.9672,1.9675,1.97,1.9696,1.973,1.9733,1.9737,1.9803,1.9815,1.985,1.979,1.997,1.9974,1.9979,2.0013,2.0022,2.003,0,0,0,0,0,1.9525,1.9584,1.9577,1.9591,1.966,1.9714,1.9723,1.9726,1.9703,1.9731,1.9745,1.9732,1.9839,1.9809,1.9823,1.9859,1.9967,1.9973,1.9978,2.001,2.002,2.0029,0,0,0,0,0,0,1.9555,1.9588,1.9581,1.9652,1.968,1.971,1.9746,1.9738,1.9773,1.9768,1.9771,1.9779,1.9842,1.9857,1.9824,1.9932,1.99,1.9908,1.9919,1.9929,1.9937,1.9931,1.9794,0,0,0,0,0,1.957,1.9612,1.9639,1.9699,1.9713,1.9727,1.9751,1.9751,1.9781,1.9792,1.9811,1.984,1.988,1.9906,1.9944,2.0016,2.0022,2.0048,2.0056,2.0063,2.0069,2.0106,2.0117,1.9999,1.9999,1.9999,0,0,1.9601,1.9625,1.9651,1.9705,1.9727,1.9769,1.9737,1.9784,1.9815,1.9799,1.9858,1.9873,1.9905,1.9972,2.0002,1.9987,2.0103,2.007,2.0075,2.0077,2.0113,2.0124,2.0134,2.0002,2.0002,2.0001,0,0,1.9679,1.9702,1.9753,1.9776,1.9809,1.9818,1.9831,1.9862,1.9871,1.993,1.9918,1.9956,2.0025,2.0047,2.0068,2.0154,2.0142,2.0166,2.0207,2.0244,2.0253,2.0261,2.0289,2.03,2.0173,2.0173,2.0173,0,1.9713,1.9777,1.9781,1.9828,1.9851,1.9839,1.989,1.9912,1.9957,1.9973,1.9955,2.004,2.0061,2.0132,2.0152,2.0171,2.0183,2.0161,2.0251,2.026,2.0267,2.0294,2.0305,2.0176,2.0175,2.0175,2.0175,0,1.9816,1.986,1.9898,1.994,1.9968,2.0017,2.0028,2.0055,2.0053,2.0064,2.0123,2.0148,2.019,2.0207,2.0206,2.0278,2.0267,2.0251,2.0218,2.0281,2.0306,2.0317,2.0179,2.0178,2.0177,2.0177,0,0,1.9913,1.9957,1.997,1.9989,2.0025,2.0059,2.0107,2.0148,2.0171,2.0202,2.0241,2.0299,2.0284,2.0307,2.0309,2.0341,2.0404,2.032,2.0321,2.0333,2.0482,2.0492,2.0504,2.0398,2.04,2.0402,2.0478,0,1.9992,2.0076,2.0081,2.0157,2.0196,2.0186,2.0228,2.0254,2.0265,2.03,2.0312,2.0353,2.0331,2.0344,2.0376,2.039,2.0434,2.0385,2.0432,2.0434,2.0422,2.0517,2.0528,2.0599,2.0488,2.049,2.0491,0,2.0094,2.0128,2.0208,2.0237,2.0254,2.0291,2.0328,2.0362,2.0391,2.0397,2.0423,2.042,2.0468,2.0435,2.05,2.0467,2.0487,2.0497,2.05,2.0502,2.0465,2.052,2.0622,2.0632,2.0507,2.0506,2.0505,0,2.0154,2.022,2.0275,2.0292,2.0328,2.0354,2.037,2.0397,2.0421,2.0453,2.0468,2.0507,2.0527,2.0556,2.0562,2.0538,2.0627,2.0595,2.0631,2.0631,2.0648,2.0647,2.0753,2.0666,2.0666,2.0665,2.0665,0,2.024,2.0288,2.0302,2.0336,2.039,2.0395,2.0448,2.0462,2.0486,2.0522,2.0516,2.055,2.0558,2.0593,2.0598,2.065,2.066,2.0665,2.0665,2.0664,2.0663,2.0675,2.0669,2.0668,2.0668,2.0667,2.0667,0,2.0314,2.0326,2.0385,2.0415,2.0423,2.0461,2.0485,2.0518,2.0528,2.0574,2.0585,2.0601,2.0642,2.0652,2.0701,2.0704,2.0765,2.0762,2.0755,2.0754,2.0788,2.0784,2.0904,2.0919,2.0824,2.0825,2.0826,0,2.0367,2.0404,2.0437,2.046,2.0478,2.0516,2.054,2.0546,2.0572,2.0607,2.0634,2.0675,2.0707,2.0772,2.0788,2.0825,2.0821,2.0861,2.0827,2.0823,2.0819,2.0815,2.0818,2.0866,2.0867,2.0868,2.0869,0,2.0458,2.0462,2.0497,2.0534,2.0563,2.0592,2.062,2.064,2.065,2.0678,2.072,2.0745,2.0794,2.0833,2.087,2.0886,2.0879,2.088,2.089,2.0887,2.088,2.0882,2.0769,2.0877,2.0876,2.0875,2.0875,2.0874,2.0522,2.0553,2.0581,2.062,2.0642,2.0668,2.0699,2.0713,2.0748,2.0788,2.079,2.0835,2.0862,2.0911,2.0929,2.0963,2.0951,2.0966,2.0969,2.0972,2.0974,2.0877,2.097,2.097,2.097,2.097,2.097,0,2.061,2.0628,2.0663,2.0702,2.0733,2.0724,2.0754,2.078,2.0819,2.0845,2.0877,2.0924,2.0962,2.0981,2.1018,2.1041,2.1039,2.1051,2.1048,2.1051,2.0984,2.097,2.1052,2.1052,2.1052,2.1052,2.1052,2.1052,2.066,2.0712,2.0719,2.0782,2.0798,2.0842,2.086,2.0883,2.0904,2.0956,2.0988,2.1,2.1023,2.1061,2.1095,2.11,2.1112,2.1126,2.1128,2.1065,2.1056,2.1048,2.1035,2.1129,2.1129,2.1192,2.1193,2.1193]},{"header":{"parameterUnit":"m.s-1","parameterCategory":1,"la1":30.2991,"la2":30.254,"lo1":-89.0895,"lo2":-89.0444,"dy":0.0017,"dx":0.0017,"nx":28,"ny":28,"refTime":"2025-04-26T09:00:00:Z","depth":0,"parameterNumber":3,"parameterNumberName":"V-component_of_WINDS"},"data":[0,0,0,0,0,0,0,0,0,0,0,0,0,0,0,0,0,0,0,0,0,0,0,0,0,0,0,0,0,0,0,0,0,0,0,0,0,0,0,0,0,0,0,0,0,0,0,0,0,0,0,0,0,0,0,0,0,0,0.0387,0.0387,0,0.0387,0.0387,0.0387,0.0353,0.0352,0.0351,0.035,0.0352,0.0353,0.0354,0,0,0,0,0,0,0,0,0,0,0,0,0,0.036,0.036,0.0387,0.0387,0.0387,0.0387,0.0387,0.0387,0.0353,0.0352,0.0351,0.035,0.0352,0.0353,0.0354,0,0,0,0,0,0,0,0,0,0,0,0,0,0.0367,0.036,0.0387,0.037,0.0369,0.0387,0.0387,0.0387,0.0353,0.0352,0.0351,0.0349,0.0351,0.0352,0.0354,0.0388,0,0,0.0358,0.0358,0,0,0,0,0,0,0,0,0.0366,0.0368,0.0373,0.0371,0.037,0.0368,0.0377,0.0387,0.0354,0.0359,0.035,0.0349,0.0359,0.0359,0.0362,0.0389,0.0389,0.0358,0.0359,0.0359,0.036,0,0,0,0,0,0,0,0.0366,0.0368,0.0387,0.0373,0.0371,0.0363,0.0362,0.0379,0.0366,0.0359,0.0356,0.0356,0.0358,0.0361,0.0362,0.0389,0.0358,0.0359,0.036,0.036,0.0442,0.0444,0,0,0,0,0,0,0.0367,0.0367,0.0387,0.0387,0.0365,0.0364,0.0364,0.037,0.0366,0.0364,0.0358,0.0355,0.0359,0.036,0.0362,0.0402,0.0359,0.036,0.0361,0.0441,0.0443,0.0444,0,0,0,0,0,0,0.0367,0.037,0.0387,0.0376,0.0378,0.0366,0.0374,0.0371,0.0374,0.0365,0.0363,0.0363,0.0358,0.036,0.0382,0.0401,0.0361,0.0362,0.0439,0.0441,0.0443,0.0482,0,0,0,0,0,0,0.0366,0.037,0.0383,0.0377,0.0379,0.0407,0.0375,0.0372,0.0376,0.0373,0.037,0.0368,0.0357,0.038,0.0383,0.0402,0.0363,0.0437,0.044,0.0443,0.0479,0.0485,0.049,0,0,0,0,0,0.0365,0.0394,0.0383,0.0386,0.0395,0.0408,0.0409,0.0395,0.0378,0.0391,0.0385,0.0369,0.0398,0.0382,0.0386,0.0406,0.0436,0.0439,0.0442,0.0476,0.0484,0.049,0,0,0,0,0,0,0.0403,0.0393,0.0381,0.0409,0.0409,0.0402,0.0418,0.0404,0.041,0.0406,0.039,0.0389,0.0414,0.0412,0.0394,0.0438,0.0414,0.0418,0.0439,0.0446,0.0451,0.0452,0.0364,0,0,0,0,0,0.0415,0.0426,0.0417,0.0442,0.0443,0.043,0.0436,0.0425,0.0425,0.0425,0.0421,0.0423,0.0432,0.0439,0.0447,0.0478,0.0477,0.0493,0.0499,0.0504,0.0507,0.0523,0.053,0.0454,0.0454,0.0454,0,0,0.0439,0.0435,0.0443,0.0449,0.0448,0.0461,0.0431,0.0445,0.0454,0.0428,0.0448,0.0445,0.0445,0.0471,0.0482,0.047,0.0528,0.0508,0.0511,0.0513,0.0527,0.0534,0.054,0.0457,0.0456,0.0456,0,0,0.0489,0.0487,0.0507,0.0506,0.0505,0.0497,0.0501,0.0496,0.0493,0.0512,0.0492,0.0503,0.052,0.052,0.0523,0.0572,0.0556,0.0575,0.0605,0.062,0.0626,0.0631,0.0648,0.0655,0.0578,0.0578,0.0579,0,0.0519,0.0536,0.052,0.0535,0.0538,0.0513,0.0534,0.0534,0.0536,0.0539,0.0525,0.0545,0.0543,0.0569,0.0581,0.0584,0.0589,0.0575,0.0626,0.0632,0.0636,0.0652,0.0659,0.0581,0.058,0.058,0.058,0,0.0573,0.0585,0.0602,0.0603,0.0608,0.0626,0.0612,0.0619,0.0607,0.06,0.062,0.0617,0.0624,0.0629,0.0619,0.0653,0.0646,0.0629,0.0605,0.0646,0.0661,0.0667,0.0584,0.0583,0.0582,0.0582,0,0,0.0648,0.0639,0.0645,0.0645,0.0641,0.065,0.0667,0.0672,0.0679,0.068,0.0694,0.0708,0.0692,0.0695,0.0684,0.0698,0.0736,0.068,0.0679,0.069,0.0773,0.0785,0.0793,0.0725,0.0726,0.0727,0.0773,0,0.0696,0.0723,0.0708,0.0737,0.0748,0.0724,0.0738,0.0738,0.0731,0.0739,0.0732,0.0742,0.0721,0.0723,0.0735,0.0728,0.0752,0.0725,0.0738,0.0738,0.0739,0.0801,0.0814,0.0857,0.0779,0.078,0.078,0,0.0756,0.0759,0.079,0.0782,0.0786,0.0799,0.0803,0.0811,0.0809,0.0804,0.0806,0.0791,0.0807,0.0782,0.0803,0.0785,0.0789,0.0787,0.0788,0.0789,0.0762,0.0803,0.0871,0.0878,0.0789,0.0789,0.0788,0,0.0808,0.0819,0.0839,0.0839,0.0832,0.0841,0.0838,0.0835,0.0839,0.0843,0.0845,0.085,0.0853,0.0858,0.0845,0.0828,0.0867,0.0842,0.0863,0.0864,0.0873,0.0873,0.0943,0.0876,0.0876,0.0875,0.0875,0,0.0863,0.0883,0.0861,0.0873,0.0894,0.0876,0.0897,0.0892,0.0889,0.09,0.088,0.089,0.0872,0.0881,0.0871,0.0889,0.0891,0.0887,0.0884,0.0889,0.0889,0.0892,0.0888,0.0877,0.0877,0.0876,0.0876,0,0.0925,0.0911,0.093,0.0921,0.0919,0.0935,0.0926,0.0937,0.0929,0.0942,0.0944,0.0931,0.094,0.0927,0.0935,0.0928,0.0954,0.0947,0.0954,0.0952,0.0974,0.0972,0.1048,0.1057,0.0985,0.0985,0.0986,0,0.0961,0.0975,0.0966,0.0971,0.097,0.0978,0.0982,0.0965,0.0969,0.0968,0.0978,0.0985,0.099,0.1005,0.0997,0.1002,0.0995,0.1021,0.0996,0.1,0.0995,0.0995,0.0996,0.1027,0.1027,0.1028,0.1029,0,0.1027,0.1019,0.1025,0.1028,0.1032,0.1034,0.1034,0.104,0.1022,0.1028,0.1036,0.104,0.1047,0.1054,0.1057,0.1055,0.1039,0.1036,0.1042,0.1047,0.1051,0.1049,0.0969,0.1035,0.1034,0.1034,0.1034,0.1033,0.1077,0.1087,0.1083,0.1089,0.1088,0.1088,0.1097,0.1089,0.1096,0.11,0.1089,0.11,0.1097,0.1099,0.1098,0.1106,0.1095,0.1103,0.1105,0.1107,0.111,0.1049,0.1107,0.1107,0.1107,0.1106,0.1106,0,0.1141,0.1136,0.1143,0.1143,0.1148,0.1132,0.1131,0.1136,0.1146,0.1144,0.1148,0.1158,0.1164,0.1155,0.116,0.1169,0.1161,0.117,0.117,0.1169,0.112,0.1115,0.1176,0.1176,0.1176,0.1176,0.1176,0.1176,0.1175,0.1193,0.1184,0.12,0.1196,0.1205,0.1206,0.1206,0.1205,0.1216,0.122,0.1214,0.121,0.1214,0.1219,0.1216,0.1219,0.1231,0.1226,0.118,0.1173,0.1166,0.1162,0.1231,0.1232,0.1274,0.1274,0.1275]}]]